Geilo, Norway 16 day weather forecast

Slopes altitude range -1 m - -1m

Number of lifts: -1 Pistes: -1km

In some cases the lift and piste totals shown are for the ski domain (e.g. Three Valleys) rather than individual resort (e.g. Courchevel)

Overview

The 16 day weather forecast is fully updated 4 times every day.

    • Wed 21 NOV 2018
    • Wed 21
    • -9C -7C
    • Thu 22 NOV 2018
    • Thu 22
    • -5C -3C
    • Fri 23 NOV 2018
    • Fri 23
    • -7C -6C
    • Sat 24 NOV 2018
    • Sat 24
    • -11C -10C
    • Sun 25 NOV 2018
    • Sun 25
    • -12C -10C
    • Mon 26 NOV 2018
    • Mon 26
    • -12C -10C
    • Tue 27 NOV 2018
    • Tue 27
    • -13C -11C
    • Wed 28 NOV 2018
    • Wed 28
    • -15C -13C
    • Thu 29 NOV 2018
    • Thu 29
    • -8C -6C
    • Fri 30 NOV 2018
    • Fri 30
    • -7C -6C
    • Sat 01 DEC 2018
    • Sat 01
    • -11C -7C
    • Sun 02 DEC 2018
    • Sun 02
    • -12C -10C
    • Mon 03 DEC 2018
    • Mon 03
    • -13C -9C
    • Tue 04 DEC 2018
    • Tue 04
    • -7C -6C
    • Wed 05 DEC 2018
    • Wed 05
    • -7C -3C
    • Thu 06 DEC 2018
    • Thu 06
    • -6C -2C

Date:

Time Type 0°C level Temp Chill Snow Cloud Speed Gust Dir Press
12:00 102m -7°C -7_2 0cm 56% 2mph 3mph 1036mB
15:00 5m -7°C -7_3 0cm 0% 3mph 3mph 1035mB
18:00 137m -7°C -7_3 0cm 0% 3mph 4mph 1034mB
21:00 322m -7°C -7_4 0cm 0% 4mph 5mph 1033mB
0:00 467m -7°C -7_5 0cm 0% 5mph 6mph 1032mB
3:00 529m -5°C -5_6 0cm 0% 6mph 7mph 1031mB
6:00 509m -5°C -5_7 0cm 0% 7mph 8mph 1030mB
9:00 546m -5°C -5_6 0cm 0% 6mph 7mph 1030mB
12:00 767m -3°C -3_5 0cm 0% 5mph 6mph 1029mB
15:00 554m -3°C -3_5 0cm 0% 5mph 6mph 1028mB
18:00 480m -3°C -3_5 0cm 0% 5mph 6mph 1028mB
21:00 411m -5°C -5_4 0cm 0% 4mph 5mph 1027mB
0:00 400m -5°C -5_5 0cm 0% 5mph 6mph 1026mB
3:00 359m -6°C -6_5 0cm 0% 5mph 6mph 1025mB
6:00 272m -6°C -6_5 0cm 0% 5mph 6mph 1025mB
9:00 226m -7°C -7_4 0cm 0% 4mph 4mph 1024mB
12:00 363m -6°C -6_2 0cm 0% 2mph 2mph 1023mB
15:00 44m -6°C -6_1 0cm 74% 1mph 2mph 1022mB
18:00 0m -6°C -6_1 0cm 85% 1mph 2mph 1022mB
21:00 0m -9°C -9_1 0cm 95% 1mph 1mph 1022mB
0:00 0m -10°C -10_1 0cm 94% 1mph 2mph 1022mB
3:00 0m -11°C -11_0 0cm 91% 0mph 1mph 1021mB
6:00 0m -11°C -11_1 0cm 87% 1mph 1mph 1022mB
9:00 0m -11°C -11_3 0cm 1% 3mph 3mph 1023mB
12:00 0m -10°C -10_3 0cm 16% 3mph 3mph 1023mB
15:00 0m -10°C -10_6 0cm 0% 6mph 7mph 1024mB
18:00 0m -10°C -10_5 0cm 0% 5mph 6mph 1025mB
21:00 0m -10°C -10_5 0cm 2% 5mph 5mph 1027mB
0:00 0m -11°C -11_4 0cm 1% 4mph 5mph 1027mB
3:00 0m -11°C -11_3 0cm 0% 3mph 4mph 1027mB
6:00 0m -12°C -12_2 0cm 0% 2mph 2mph 1028mB
9:00 0m -12°C -12_2 0cm 0% 2mph 2mph 1029mB
12:00 0m -10°C -10_3 0cm 0% 3mph 3mph 1029mB
15:00 0m -10°C -10_4 0cm 0% 4mph 4mph 1028mB
18:00 0m -10°C -10_5 0cm 0% 5mph 6mph 1027mB
21:00 0m -11°C -11_6 0cm 0% 6mph 7mph 1027mB
0:00 0m -11°C -11_5 0cm 0% 5mph 6mph 1026mB
3:00 0m -11°C -11_4 0cm 0% 4mph 5mph 1025mB
6:00 0m -11°C -11_4 0cm 0% 4mph 5mph 1024mB
9:00 0m -12°C -12_3 0cm 0% 3mph 4mph 1024mB
12:00 0m -10°C -10_3 0cm 0% 3mph 3mph 1023mB
15:00 0m -10°C -10_3 0cm 0% 3mph 3mph 1022mB
18:00 0m -10°C -10_3 0cm 0% 3mph 3mph 1022mB
21:00 0m -12°C -12_3 0cm 0% 3mph 3mph 1022mB
0:00 0m -13°C -13_3 0cm 0% 3mph 3mph 1021mB
3:00 0m -13°C -13_3 0cm 0% 3mph 4mph 1020mB
6:00 0m -13°C -13_3 0cm 0% 3mph 4mph 1019mB
9:00 0m -13°C -13_2 0cm 0% 2mph 3mph 1018mB
12:00 0m -11°C -11_3 0cm 0% 3mph 3mph 1017mB
15:00 0m -11°C -11_3 0cm 0% 3mph 4mph 1015mB
18:00 0m -11°C -11_4 0cm 0% 4mph 4mph 1014mB
21:00 0m -14°C -14_4 0cm 20% 4mph 5mph 1013mB
0:00 0m -14°C -14_4 0cm 59% 4mph 5mph 1012mB
3:00 0m -15°C -15_3 0cm 99% 3mph 4mph 1011mB
6:00 0m -15°C -15_3 0cm 99% 3mph 3mph 1009mB
9:00 0m -15°C -15_3 1cm 99% 3mph 3mph 1009mB
12:00 0m -13°C -13_3 1cm 99% 3mph 3mph 1007mB
15:00 0m -13°C -13_3 1cm 100% 3mph 3mph 1006mB
18:00 0m -12°C -12_3 1cm 100% 3mph 3mph 1005mB
21:00 0m -9°C -9_3 1cm 98% 3mph 4mph 1005mB
0:00 0m -9°C -9_3 1cm 98% 3mph 4mph 1004mB
3:00 0m -8°C -8_3 1cm 100% 3mph 5mph 1003mB
6:00 0m -8°C -8_4 1cm 100% 4mph 5mph 1003mB
9:00 0m -8°C -8_3 1cm 100% 3mph 4mph 1004mB
12:00 0m -6°C -6_3 1cm 100% 3mph 4mph 1003mB
15:00 0m -6°C -6_3 1cm 99% 3mph 4mph 1003mB
18:00 0m -6°C -6_3 1cm 95% 3mph 3mph 1004mB
21:00 0m -8°C -8_4 0cm 65% 4mph 5mph 1004mB
0:00 0m -8°C -8_4 0cm 77% 4mph 5mph 1003mB
3:00 0m -8°C -8_4 0cm 89% 4mph 5mph 1003mB
6:00 0m -8°C -8_5 1cm 90% 5mph 6mph 1003mB
9:00 0m -7°C -7_4 1cm 91% 4mph 5mph 1004mB
12:00 0m -6°C -6_4 1cm 90% 4mph 7mph 1004mB
15:00 0m -6°C -6_5 1cm 78% 5mph 6mph 1005mB
18:00 0m -6°C -6_6 1cm 74% 6mph 7mph 1006mB
21:00 0m -8°C -8_6 0cm 80% 6mph 9mph 1007mB
0:00 0m -8°C -8_7 0cm 75% 7mph 11mph 1008mB
3:00 0m -8°C -8_8 0cm 87% 8mph 13mph 1009mB
6:00 0m -8°C -8_8 0cm 74% 8mph 13mph 1010mB
Afternoon 0.00520833mm 0 0m -7°C -7_9 0cm 22% 9mph 12mph 1016mB
Morning 0.166667mm 0 0m -12°C -12_6 0cm 46% 6mph 7mph 1020mB
Afternoon 0.197917mm 0 0m -10°C -10_4 0cm 12% 4mph 5mph 1025mB
Morning 0.270833mm 0 0m -13°C -13_4 0cm 79% 4mph 5mph 1025mB
Afternoon 0.0104167mm 0 0m -9°C -9_8 1cm 100% 8mph 13mph 1019mB
Morning 0.484375mm 0 8m -10°C -10_9 4cm 96% 9mph 16mph 1008mB
Afternoon 0.328125mm 0 0m -6°C -6_3 3cm 100% 3mph 4mph 1002mB
Morning 0.0572917mm 0 9m -7°C -7_3 0cm 51% 3mph 3mph 1000mB
Afternoon 0.0833333mm 0 1m -3°C -3_3 0cm 35% 3mph 4mph 999mB
Morning 0.885417mm 0 79m -7°C -7_5 7cm 95% 5mph 7mph 999mB
Afternoon 0.807292mm 0 300m -2°C -2_4 6cm 86% 4mph 5mph 998mB
Morning 0.411458mm 0 0m -8°C -8_6 0cm 77% 6mph 6mph 997mB

16 day outlook at a glance

Forecast issued: 21/11/2018 13:40:17

Chat

Your comments and questions. In a resort? Let us know what it's like!


Characters left 250

For terms and conditions see Readers Comments on the Cookie and privacy policy page.